Regional Weather Roundup
Issued by NWS

Home | Current Version | Previous Version | Text Only | Print | Product List | Glossary Off
Versions: 1 2 3 4 5 6 7 8 9 10 11 12 13 14 15 16 17 18 19 20 21 22 23 24 25 26 27 28 29 30 31 32 33 34 35 36 37 38 39 40 41 42 43 44 45 46 47 48 49 50

000
ASUS43 KFSD 252010
RWRSD

WEATHER ROUNDUP FOR SOUTH DAKOTA
NATIONAL WEATHER SERVICE SIOUX FALLS SD
300 PM CDT WED MAY 25 2016

NOTE: "FAIR" INDICATES FEW OR NO CLOUDS BELOW 12,000 FEET WITH NO
SIGNIFICANT WEATHER AND/OR OBSTRUCTIONS TO VISIBILITY.


SDZ001>005-009-010-012>017-252100-
NORTHWEST AND NORTH CENTRAL SOUTH DAKOTA

CITY           SKY/WX    TMP DP  RH WIND       PRES   REMARKS
BUFFALO          N/A     61  43  51 NW21G26   29.80S
FAITH            N/A     68  47  46 W17G28    29.82R
MOBRIDGE       PTSUNNY   72  55  55 NW6       29.73F
$$

SDZ012>016-024>037-041>051-057-063-072>074-252100-
SOUTHWEST AND SOUTH CENTRAL SOUTH DAKOTA

CITY           SKY/WX    TMP DP  RH WIND       PRES   REMARKS
RAPID CTY ARPT LGT RAIN  57  47  69 N24G37    29.86R
PIERRE         MOSUNNY   73  57  57 W12G20    29.76F
CUSTER         MOSUNNY   61  41  47 W14G22    29.94R
ELLSWORTH AFB  TSTM      59  48  66 NW17G36   29.88
PHILIP         MOSUNNY   71  53  52 CALM      29.79F
PINE RIDGE     PTSUNNY   67  42  40 W10G21    29.88F
$$

SDZ004>011-016>023-039-040-252100-
NORTHEAST SOUTH DAKOTA

CITY           SKY/WX    TMP DP  RH WIND       PRES   REMARKS
ABERDEEN       PTSUNNY   73  59  61 W9        29.74R
WATERTOWN      MOSUNNY   74  59  59 SW18      29.78S
BROOKINGS      PTSUNNY   73  60  63 SW13      29.81S
SISSETON         N/A     75  60  59 W15G26    29.72R
$$

SDZ017-020-022-023-036>040-048>070-252100-
SOUTHEAST SOUTH DAKOTA

CITY           SKY/WX    TMP DP  RH WIND       PRES   REMARKS
SIOUX FALLS    MOSUNNY   76  60  57 SW8G17    29.81F
HURON          MOSUNNY   76  60  57 SW9       29.78S
CHAMBERLAIN    MOSUNNY   76  62  60 W7        29.79S
MITCHELL       MOSUNNY   74  61  63 SW12      29.80S
YANKTON        SUNNY     81  57  44 SW10      29.79S
$$

ABBREVIATIONS USED IN REMARKS
   TC - TEMPERATURE IN CELSIUS
  WCI - WIND CHILL INDEX
   HX - HEAT INDEX
  VSB - VISIBILITY




USA.gov is the U.S. government's official web portal to all federal, state and local government web resources and services.